CEB645 RPLL-RPVP

Flight info

Callsign CEB645
Flight time 0h 58m
Altitude 36000
Route BUCAL2R BUCAL M646 NOMYO NOMYO2W
Aircraft A339/H-SADE1E2E3GHIJ3J5M1P2RWXY/LB2D1

Departure

Time 2026-04-21 11:54
Airport Ninoy Aquino International Airport (RPLL)

Arrival

Time 2026-04-21 12:53
Airport Puerto Princesa International Airport / PAF Antonio Bautista Air Base (RPVP)
Time Latitude Longitude Altitude Speed Heading
2026-04-21 11:31 14.52264 121.00919 93 ft 0 kts 44°
2026-04-21 11:32 14.52259 121.00914 93 ft 0 kts 44°
2026-04-21 11:32 14.52254 121.00909 93 ft 2 kts 44°
2026-04-21 11:32 14.52244 121.00898 93 ft 2 kts 44°
2026-04-21 11:33 14.52240 121.00894 93 ft 0 kts 44°
2026-04-21 11:37 14.52234 121.00889 93 ft 2 kts 44°
2026-04-21 11:38 14.52224 121.00878 93 ft 2 kts 45°
2026-04-21 11:38 14.52213 121.00867 93 ft 2 kts 45°
2026-04-21 11:38 14.52203 121.00856 93 ft 2 kts 63°
2026-04-21 11:39 14.52200 121.00848 93 ft 2 kts 76°
2026-04-21 11:40 14.52199 121.00841 93 ft 2 kts 87°
2026-04-21 11:40 14.52200 121.00826 93 ft 2 kts 109°
2026-04-21 11:41 14.52207 121.00812 93 ft 2 kts 131°
2026-04-21 11:41 14.52213 121.00806 93 ft 0 kts 138°
2026-04-21 11:44 14.52207 121.00811 92 ft 2 kts 138°
2026-04-21 11:44 14.52192 121.00827 92 ft 3 kts 134°
2026-04-21 11:44 14.52170 121.00849 92 ft 2 kts 134°
2026-04-21 11:45 14.52152 121.00870 92 ft 6 kts 133°
2026-04-21 11:45 14.52102 121.00922 92 ft 13 kts 135°
2026-04-21 11:45 14.52018 121.01009 92 ft 20 kts 135°
2026-04-21 11:45 14.51910 121.01125 93 ft 24 kts 135°
2026-04-21 11:46 14.51808 121.01226 93 ft 18 kts 135°
2026-04-21 11:46 14.51717 121.01320 93 ft 18 kts 134°
2026-04-21 11:46 14.51626 121.01414 92 ft 19 kts 134°
2026-04-21 11:46 14.51530 121.01514 93 ft 19 kts 135°
2026-04-21 11:47 14.51452 121.01584 92 ft 12 kts 161°
2026-04-21 11:47 14.51389 121.01576 92 ft 4 kts 176°
2026-04-21 11:47 14.51352 121.01597 92 ft 7 kts 139°
2026-04-21 11:47 14.51306 121.01642 92 ft 10 kts 135°
2026-04-21 11:48 14.51246 121.01703 92 ft 13 kts 134°
2026-04-21 11:48 14.51200 121.01751 92 ft 14 kts 135°
2026-04-21 11:48 14.51095 121.01859 92 ft 17 kts 135°
2026-04-21 11:48 14.51040 121.01914 92 ft 6 kts 150°
2026-04-21 11:49 14.50995 121.01899 92 ft 9 kts 228°
2026-04-21 11:49 14.50952 121.01829 92 ft 14 kts 240°
2026-04-21 11:49 14.50891 121.01719 92 ft 20 kts 241°
2026-04-21 11:49 14.50813 121.01576 93 ft 25 kts 240°
2026-04-21 11:50 14.50756 121.01477 93 ft 26 kts 241°
2026-04-21 11:50 14.50665 121.01312 92 ft 26 kts 239°
2026-04-21 11:50 14.50573 121.01145 93 ft 26 kts 239°
2026-04-21 11:50 14.50482 121.00984 93 ft 25 kts 240°
2026-04-21 11:51 14.50396 121.00827 92 ft 24 kts 239°
2026-04-21 11:51 14.50312 121.00677 92 ft 23 kts 240°
2026-04-21 11:51 14.50231 121.00530 92 ft 23 kts 240°
2026-04-21 11:51 14.50152 121.00388 92 ft 22 kts 240°
2026-04-21 11:52 14.50074 121.00249 92 ft 22 kts 240°
2026-04-21 11:52 14.49999 121.00111 92 ft 21 kts 239°
2026-04-21 11:52 14.49928 120.99991 92 ft 12 kts 226°
2026-04-21 11:52 14.49859 120.99979 92 ft 10 kts 158°
2026-04-21 11:53 14.49808 121.00034 93 ft 10 kts 99°
2026-04-21 11:53 14.49835 121.00105 93 ft 10 kts 60°
2026-04-21 11:53 14.49862 121.00153 92 ft 15 kts 60°
2026-04-21 11:54 14.51700 121.03420 1927 ft 169 kts 63°
2026-04-21 11:54 14.52467 121.04817 2846 ft 173 kts 63°
2026-04-21 11:55 14.53081 121.05939 3214 ft 190 kts 63°
2026-04-21 11:55 14.53761 121.07179 3579 ft 207 kts 63°
2026-04-21 11:55 14.54515 121.08540 3968 ft 225 kts 63°
2026-04-21 11:55 14.55316 121.09989 4380 ft 243 kts 62°
2026-04-21 11:56 14.56105 121.11609 4792 ft 260 kts 76°
2026-04-21 11:56 14.56238 121.13478 5204 ft 271 kts 103°
2026-04-21 11:56 14.55465 121.15279 5784 ft 275 kts 131°
2026-04-21 11:56 14.54171 121.16691 6555 ft 276 kts 138°
2026-04-21 11:57 14.52815 121.18064 7195 ft 282 kts 138°
2026-04-21 11:57 14.51405 121.19492 7824 ft 289 kts 138°
2026-04-21 11:57 14.49971 121.20959 8554 ft 293 kts 137°
2026-04-21 11:57 14.48470 121.22416 9203 ft 297 kts 147°
2026-04-21 11:58 14.46630 121.23311 9861 ft 295 kts 171°
2026-04-21 11:58 14.44613 121.23395 10462 ft 296 kts 193°
2026-04-21 11:58 14.42664 121.22635 10805 ft 306 kts 216°
2026-04-21 11:58 14.41090 121.21139 11216 ft 316 kts 230°
2026-04-21 11:59 14.39626 121.19437 11854 ft 322 kts 231°
2026-04-21 11:59 14.38131 121.17684 12538 ft 327 kts 231°
2026-04-21 11:59 14.36619 121.15923 13272 ft 330 kts 231°
2026-04-21 11:59 14.35099 121.14167 13930 ft 336 kts 230°
2026-04-21 12:00 14.33513 121.12346 14607 ft 341 kts 230°
2026-04-21 12:00 14.31933 121.10538 15337 ft 344 kts 229°
2026-04-21 12:00 14.30310 121.08690 15924 ft 352 kts 230°
2026-04-21 12:00 14.28580 121.06870 16437 ft 363 kts 225°
2026-04-21 12:01 14.26648 121.05180 17103 ft 369 kts 219°
2026-04-21 12:01 14.24562 121.03637 17805 ft 373 kts 216°
2026-04-21 12:01 14.22440 121.02142 18555 ft 375 kts 216°
2026-04-21 12:01 14.20271 121.00623 19379 ft 375 kts 215°
2026-04-21 12:02 14.18120 120.99116 20080 ft 378 kts 215°
2026-04-21 12:02 14.13773 120.96059 21364 ft 385 kts 215°
2026-04-21 12:02 14.11567 120.94504 21980 ft 388 kts 215°
2026-04-21 12:03 14.09328 120.92927 22579 ft 392 kts 215°
2026-04-21 12:03 14.07066 120.91333 23163 ft 395 kts 215°
2026-04-21 12:03 14.04805 120.89741 23722 ft 399 kts 215°
2026-04-21 12:03 14.02510 120.88125 24271 ft 402 kts 215°
2026-04-21 12:04 14.00202 120.86501 24805 ft 405 kts 214°
2026-04-21 12:04 13.97875 120.84865 25331 ft 409 kts 214°
2026-04-21 12:04 13.95528 120.83213 25841 ft 412 kts 214°
2026-04-21 12:04 13.93162 120.81549 26340 ft 414 kts 214°
2026-04-21 12:05 13.90802 120.79890 26818 ft 417 kts 214°
2026-04-21 12:05 13.88390 120.78194 27287 ft 420 kts 214°
2026-04-21 12:05 13.85998 120.76513 27742 ft 423 kts 214°
2026-04-21 12:05 13.83550 120.74792 28193 ft 426 kts 214°
2026-04-21 12:06 13.81118 120.73082 28635 ft 428 kts 214°
2026-04-21 12:06 13.78670 120.71359 29066 ft 430 kts 214°
2026-04-21 12:06 13.76204 120.69625 29484 ft 433 kts 214°
2026-04-21 12:06 13.73708 120.67870 29895 ft 435 kts 214°
2026-04-21 12:07 13.71206 120.66175 30405 ft 434 kts 210°
2026-04-21 12:07 13.68637 120.64606 31000 ft 431 kts 211°
2026-04-21 12:07 13.66124 120.62826 31183 ft 438 kts 216°
2026-04-21 12:07 13.63677 120.60967 31409 ft 444 kts 216°
2026-04-21 12:08 13.61116 120.59190 31739 ft 447 kts 211°
2026-04-21 12:08 13.58425 120.57581 32109 ft 449 kts 208°
2026-04-21 12:08 13.55674 120.56156 32455 ft 450 kts 205°
2026-04-21 12:08 13.52819 120.54770 32802 ft 452 kts 205°
2026-04-21 12:09 13.49982 120.53408 33134 ft 454 kts 204°
2026-04-21 12:09 13.47125 120.52038 33461 ft 456 kts 204°
2026-04-21 12:09 13.44245 120.50655 33868 ft 456 kts 204°
2026-04-21 12:09 13.41405 120.49290 34320 ft 454 kts 205°
2026-04-21 12:10 13.38574 120.47927 34707 ft 454 kts 205°
2026-04-21 12:10 13.35709 120.46549 35030 ft 455 kts 204°
2026-04-21 12:10 13.32850 120.45174 35329 ft 457 kts 204°
2026-04-21 12:10 13.29986 120.43798 35625 ft 458 kts 204°
2026-04-21 12:11 13.27101 120.42415 35860 ft 459 kts 204°
2026-04-21 12:11 13.21306 120.39636 35883 ft 460 kts 204°
2026-04-21 12:12 13.15532 120.36866 35885 ft 460 kts 204°
2026-04-21 12:12 13.09755 120.34096 35884 ft 461 kts 204°
2026-04-21 12:13 13.03917 120.31301 35884 ft 466 kts 205°
2026-04-21 12:13 12.98089 120.28518 35886 ft 468 kts 206°
2026-04-21 12:14 12.92220 120.25708 35886 ft 465 kts 207°
2026-04-21 12:14 12.86358 120.22892 35885 ft 465 kts 207°
2026-04-21 12:15 12.80680 120.20170 35885 ft 465 kts 207°
2026-04-21 12:15 12.74723 120.17319 35885 ft 465 kts 207°
2026-04-21 12:16 12.68840 120.14506 35885 ft 465 kts 207°
2026-04-21 12:16 12.62913 120.11674 35885 ft 465 kts 207°
2026-04-21 12:17 12.56976 120.08839 35885 ft 465 kts 207°
2026-04-21 12:17 12.51078 120.06024 35885 ft 465 kts 207°
2026-04-21 12:18 12.45142 120.03193 35885 ft 465 kts 207°
2026-04-21 12:18 12.39217 120.00367 35885 ft 465 kts 207°
2026-04-21 12:19 12.33372 119.97581 35885 ft 465 kts 207°
2026-04-21 12:19 12.27482 119.94775 35885 ft 465 kts 207°
2026-04-21 12:20 12.21635 119.91992 35885 ft 465 kts 207°
2026-04-21 12:20 12.15718 119.89175 35882 ft 465 kts 207°
2026-04-21 12:21 12.09875 119.86396 35876 ft 465 kts 207°
2026-04-21 12:21 12.04004 119.83604 35870 ft 465 kts 207°
2026-04-21 12:22 11.98137 119.80816 35864 ft 465 kts 207°
2026-04-21 12:22 11.95187 119.79414 35711 ft 467 kts 207°
2026-04-21 12:22 11.92245 119.78017 35037 ft 474 kts 207°
2026-04-21 12:22 11.89264 119.76600 34219 ft 479 kts 207°
2026-04-21 12:23 11.86224 119.75156 33478 ft 481 kts 207°
2026-04-21 12:23 11.83199 119.73721 32853 ft 481 kts 207°
2026-04-21 12:23 11.80158 119.72279 32418 ft 475 kts 207°
2026-04-21 12:23 11.77178 119.70865 31988 ft 470 kts 207°
2026-04-21 12:24 11.74250 119.69476 31531 ft 467 kts 207°
2026-04-21 12:24 11.71276 119.68065 31052 ft 463 kts 207°
2026-04-21 12:24 11.68387 119.66703 30587 ft 459 kts 206°
2026-04-21 12:24 11.65471 119.65350 30076 ft 457 kts 206°
2026-04-21 12:25 11.62560 119.64003 29626 ft 452 kts 206°
2026-04-21 12:25 11.59697 119.62679 29286 ft 446 kts 206°
2026-04-21 12:25 11.56865 119.61368 28989 ft 438 kts 206°
2026-04-21 12:25 11.54120 119.60097 28697 ft 431 kts 206°
2026-04-21 12:26 11.51356 119.58815 28356 ft 426 kts 206°
2026-04-21 12:26 11.48678 119.57573 28005 ft 421 kts 206°
2026-04-21 12:26 11.45992 119.56327 27648 ft 417 kts 206°
2026-04-21 12:26 11.43364 119.55108 27291 ft 413 kts 206°
2026-04-21 12:27 11.40728 119.53885 26932 ft 409 kts 206°
2026-04-21 12:27 11.38147 119.52689 26578 ft 405 kts 206°
2026-04-21 12:27 11.35588 119.51503 26221 ft 402 kts 206°
2026-04-21 12:27 11.33027 119.50317 25866 ft 398 kts 206°
2026-04-21 12:28 11.30485 119.49139 25511 ft 395 kts 206°
2026-04-21 12:28 11.27965 119.47973 25156 ft 392 kts 206°
2026-04-21 12:28 11.25477 119.46820 24805 ft 388 kts 206°
2026-04-21 12:28 11.23052 119.45697 24460 ft 385 kts 206°
2026-04-21 12:29 11.20572 119.44549 24106 ft 382 kts 206°
2026-04-21 12:29 11.18176 119.43439 23764 ft 380 kts 206°
2026-04-21 12:29 11.15732 119.42309 23410 ft 377 kts 206°
2026-04-21 12:29 11.13346 119.41205 23067 ft 374 kts 206°
2026-04-21 12:30 11.10982 119.40111 22724 ft 371 kts 206°
2026-04-21 12:30 11.08652 119.39032 22384 ft 369 kts 206°
2026-04-21 12:30 11.06290 119.37940 22039 ft 366 kts 206°
2026-04-21 12:30 11.03983 119.36872 21699 ft 364 kts 206°
2026-04-21 12:31 11.01641 119.35790 21347 ft 362 kts 206°
2026-04-21 12:31 10.99356 119.34734 20995 ft 360 kts 206°
2026-04-21 12:31 10.97063 119.33675 20638 ft 359 kts 206°
2026-04-21 12:31 10.94779 119.32619 20282 ft 358 kts 206°
2026-04-21 12:32 10.92505 119.31569 19927 ft 356 kts 206°
2026-04-21 12:32 10.90237 119.30521 19575 ft 355 kts 206°
2026-04-21 12:32 10.88243 119.29601 19262 ft 354 kts 206°
2026-04-21 12:32 10.86000 119.28565 18916 ft 353 kts 206°
2026-04-21 12:33 10.83755 119.27528 18577 ft 351 kts 206°
2026-04-21 12:33 10.81516 119.26495 18240 ft 349 kts 206°
2026-04-21 12:33 10.79280 119.25463 17902 ft 347 kts 206°
2026-04-21 12:33 10.77103 119.24459 17571 ft 346 kts 206°
2026-04-21 12:34 10.74896 119.23441 17237 ft 344 kts 206°
2026-04-21 12:34 10.72731 119.22442 16908 ft 342 kts 206°
2026-04-21 12:34 10.70553 119.21438 16575 ft 340 kts 206°
2026-04-21 12:34 10.68379 119.20435 16242 ft 339 kts 206°
2026-04-21 12:35 10.66247 119.19453 15914 ft 337 kts 206°
2026-04-21 12:35 10.64097 119.18462 15582 ft 335 kts 206°
2026-04-21 12:35 10.61949 119.17471 15251 ft 333 kts 206°
2026-04-21 12:35 10.59823 119.16491 14922 ft 331 kts 206°
2026-04-21 12:36 10.57699 119.15512 14594 ft 330 kts 206°
2026-04-21 12:36 10.55579 119.14535 14266 ft 328 kts 206°
2026-04-21 12:36 10.53522 119.13586 13948 ft 326 kts 206°
2026-04-21 12:36 10.51454 119.12634 13629 ft 324 kts 206°
2026-04-21 12:37 10.49423 119.11698 13314 ft 322 kts 206°
2026-04-21 12:37 10.47409 119.10770 13002 ft 320 kts 206°
2026-04-21 12:37 10.45387 119.09839 12687 ft 319 kts 206°
2026-04-21 12:37 10.43381 119.08915 12375 ft 317 kts 206°
2026-04-21 12:38 10.41368 119.07989 12061 ft 315 kts 206°
2026-04-21 12:38 10.39393 119.07079 11749 ft 313 kts 206°
2026-04-21 12:38 10.37416 119.06169 11433 ft 312 kts 206°
2026-04-21 12:38 10.35472 119.05205 11115 ft 310 kts 210°
2026-04-21 12:39 10.33656 119.04097 10791 ft 308 kts 214°
2026-04-21 12:39 10.31901 119.02828 10443 ft 307 kts 217°
2026-04-21 12:39 10.30208 119.01556 10140 ft 305 kts 217°
2026-04-21 12:39 10.28520 119.00282 10032 ft 295 kts 217°
2026-04-21 12:40 10.26910 118.99069 10006 ft 284 kts 217°
2026-04-21 12:40 10.25349 118.97896 9911 ft 276 kts 217°
2026-04-21 12:40 10.23831 118.96755 9613 ft 275 kts 217°
2026-04-21 12:40 10.22297 118.95602 9332 ft 274 kts 217°
2026-04-21 12:41 10.20755 118.94444 9059 ft 273 kts 217°
2026-04-21 12:41 10.19246 118.93312 8795 ft 271 kts 216°
2026-04-21 12:41 10.17737 118.92181 8533 ft 270 kts 216°
2026-04-21 12:41 10.16230 118.91051 8274 ft 268 kts 216°
2026-04-21 12:42 10.14702 118.89991 7999 ft 267 kts 205°
2026-04-21 12:42 10.12908 118.89565 7716 ft 266 kts 179°
2026-04-21 12:42 10.11111 118.89900 7463 ft 266 kts 166°
2026-04-21 12:42 10.09330 118.90428 7202 ft 264 kts 164°
2026-04-21 12:43 10.07567 118.90968 6944 ft 263 kts 164°
2026-04-21 12:43 10.05796 118.91508 6685 ft 262 kts 164°
2026-04-21 12:43 10.04036 118.92038 6427 ft 260 kts 164°
2026-04-21 12:43 10.02280 118.92563 6173 ft 259 kts 164°
2026-04-21 12:44 10.00555 118.93076 5924 ft 258 kts 164°
2026-04-21 12:44 9.98824 118.93591 5673 ft 257 kts 164°
2026-04-21 12:44 9.97096 118.94105 5423 ft 255 kts 164°
2026-04-21 12:44 9.95375 118.94617 5175 ft 254 kts 164°
2026-04-21 12:45 9.93671 118.95126 4931 ft 253 kts 164°
2026-04-21 12:45 9.91967 118.95634 4685 ft 252 kts 164°
2026-04-21 12:45 9.90290 118.96134 4443 ft 251 kts 164°
2026-04-21 12:45 9.88598 118.96638 4198 ft 250 kts 163°
2026-04-21 12:46 9.86917 118.97138 3954 ft 250 kts 163°
2026-04-21 12:46 9.85248 118.97634 3711 ft 249 kts 163°
2026-04-21 12:46 9.83579 118.98131 3468 ft 248 kts 163°
2026-04-21 12:46 9.81889 118.98540 3222 ft 248 kts 171°
2026-04-21 12:47 9.80149 118.98659 2972 ft 249 kts 179°
2026-04-21 12:47 9.78414 118.98605 2728 ft 249 kts 181°
2026-04-21 12:47 9.76677 118.98521 2601 ft 243 kts 182°
2026-04-21 12:47 9.75027 118.98339 2595 ft 234 kts 198°
2026-04-21 12:48 9.73750 118.97377 2579 ft 226 kts 235°
2026-04-21 12:48 9.73281 118.95933 2568 ft 208 kts 266°
2026-04-21 12:48 9.73314 118.94537 2568 ft 188 kts 271°
2026-04-21 12:48 9.73401 118.93259 2539 ft 169 kts 272°
2026-04-21 12:49 9.73479 118.92109 2519 ft 161 kts 271°
2026-04-21 12:49 9.73544 118.90978 2490 ft 155 kts 270°
2026-04-21 12:49 9.73598 118.89896 2464 ft 153 kts 270°
2026-04-21 12:49 9.73647 118.88808 2309 ft 154 kts 270°
2026-04-21 12:50 9.73693 118.87713 2083 ft 153 kts 270°
2026-04-21 12:50 9.73739 118.86631 1879 ft 153 kts 270°
2026-04-21 12:50 9.73786 118.85551 1676 ft 152 kts 270°
2026-04-21 12:50 9.73833 118.84458 1473 ft 151 kts 271°
2026-04-21 12:51 9.73880 118.83392 1284 ft 151 kts 271°
2026-04-21 12:51 9.73926 118.82331 1093 ft 150 kts 271°
2026-04-21 12:51 9.73972 118.81271 897 ft 150 kts 271°
2026-04-21 12:51 9.74018 118.80209 698 ft 150 kts 271°
2026-04-21 12:52 9.74065 118.79144 498 ft 149 kts 271°
2026-04-21 12:52 9.74113 118.78085 303 ft 149 kts 271°
2026-04-21 12:52 9.74160 118.77027 122 ft 148 kts 271°
2026-04-21 12:52 9.74196 118.76078 86 ft 101 kts 273°
2026-04-21 12:53 9.74216 118.75625 86 ft 35 kts 273°
2026-04-21 12:53 9.74222 118.75498 85 ft 8 kts 273°
2026-04-21 12:53 9.74227 118.75410 86 ft 16 kts 273°
2026-04-21 12:53 9.74236 118.75304 86 ft 10 kts 284°
2026-04-21 12:54 9.74293 118.75258 86 ft 11 kts 353°
2026-04-21 12:54 9.74376 118.75243 85 ft 12 kts 326°
2026-04-21 12:54 9.74408 118.75163 86 ft 12 kts 279°
2026-04-21 12:54 9.74413 118.75081 86 ft 3 kts 290°
2026-04-21 12:55 9.74445 118.75066 86 ft 6 kts 350°
2026-04-21 12:55 9.74479 118.75063 86 ft 3 kts 356°
2026-04-21 12:55 9.74498 118.75064 86 ft 0 kts